KF5CFW Weather Reports


Display with metric or nautical units.
time (UTC)temp
F
wind
direction
speed
MPH
gust
MPH
rain 1hr
in
rain 24hr
in
rain mn
in
humidity
%
barometer
mb
20201023021654 77 117 0.0 1.0 0.00 0.00 0.00 71 1010.6
20201023020136 78 130 0.0 1.0 0.00 0.00 0.00 71 1010.6
20201023014626 78 51 0.0 0.0 0.00 0.00 0.00 70 1010.4
20201023013143 78 102 0.0 1.0 0.00 0.00 0.00 69 1010.3
20201023011604 79 64 0.0 1.0 0.00 0.00 0.00 69 1010.1
20201023010111 79 80 0.0 1.0 0.00 0.00 0.00 68 1010.1
20201023004607 79 129 0.0 1.0 0.00 0.00 0.00 68 1010.0
20201023003114 80 69 0.0 1.0 0.00 0.00 0.00 67 1010.0
20201023001552 80 118 0.0 1.0 0.00 0.00 0.00 66 1009.8
20201023000058 81 72 0.0 1.0 0.00 0.00 0.00 65 1009.8
20201022234712 81 134 0.0 1.0 0.00 0.00 0.00 64 1009.9
20201022233140 82 98 0.0 1.0 0.00 0.00 0.00 63 1009.7
20201022231610 82 108 0.0 2.0 0.00 0.00 0.00 62 1009.7
20201022230057 83 84 0.0 1.0 0.00 0.00 0.00 61 1009.7
20201022224614 83 105 0.0 1.0 0.00 0.00 0.00 60 1009.8
20201022223132 84 64 0.0 2.0 0.00 0.00 0.00 59 1009.9
20201022221617 84 124 0.0 1.0 0.00 0.00 0.00 59 1010.0
20201022220144 85 129 0.0 3.0 0.00 0.00 0.00 58 1009.9
20201022214623 85 96 0.0 2.0 0.00 0.00 0.00 57 1009.9
20201022213103 85 96 0.0 2.0 0.00 0.00 0.00 57 1010.0
20201022211540 85 170 0.0 2.0 0.00 0.00 0.00 57 1009.9
20201022210055 85 169 0.0 2.0 0.00 0.00 0.00 56 1010.1
20201022203051 85 154 0.0 1.0 0.00 0.00 0.00 57 1010.2
20201022201625 85 197 0.0 2.0 0.00 0.00 0.00 58 1010.3
20201022200113 85 145 0.0 3.0 0.00 0.00 0.00 58 1010.6
20201022194603 85 162 0.0 2.0 0.00 0.00 0.00 58 1010.8
20201022193057 85 73 0.0 3.0 0.00 0.00 0.00 58 1011.0
20201022191530 85 154 0.0 2.0 0.00 0.00 0.00 59 1011.4
20201022190108 84 194 0.0 2.0 0.00 0.00 0.00 60 1011.5
20201022184523 84 113 0.0 2.0 0.00 0.00 0.00 60 1011.9
20201022183017 84 124 0.0 2.0 0.00 0.00 0.00 62 1012.1
20201022182340 82 129 0.0 3.0 0.00 0.00 0.00 64 1012.5
20201022180219 82 138 0.0 3.0 0.00 0.00 0.00 65 1012.8
20201022174718 81 87 0.0 3.0 0.00 0.00 0.00 68 1012.9
20201022173122 80 159 0.0 2.0 0.00 0.00 0.00 70 1013.2
20201022171617 79 204 0.0 1.0 0.00 0.00 0.00 73 1013.6
20201022170056 78 188 0.0 1.0 0.00 0.00 0.00 76 1013.9
20201022164548 77 151 0.0 2.0 0.00 0.00 0.00 79 1014.1
20201022163112 75 252 0.0 1.0 0.00 0.00 0.00 82 1014.4
20201022161613 75 129 0.0 1.0 0.00 0.00 0.00 82 1014.6
20201022160046 74 243 0.0 3.0 0.00 0.00 0.00 84 1014.7
20201022154549 73 183 0.0 1.0 0.00 0.00 0.00 86 1014.8
20201022153035 73 240 0.0 1.0 0.00 0.00 0.00 87 1014.8
20201022151554 72 160 0.0 1.0 0.00 0.00 0.00 88 1015.0
20201022150038 72 9 0.0 1.0 0.00 0.00 0.00 89 1014.9
20201022144536 71 152 0.0 1.0 0.00 0.00 0.00 90 1014.8
20201022143139 70 194 0.0 1.0 0.00 0.00 0.00 91 1014.7
20201022141533 70 211 0.0 1.0 0.00 0.00 0.00 92 1014.7
20201022140117 70 117 0.0 1.0 0.00 0.00 0.00 92 1014.5
20201022134545 70 131 0.0 1.0 0.00 0.00 0.00 93 1014.3
20201022133104 69 294 0.0 1.0 0.00 0.00 0.00 93 1014.2
20201022131529 69 127 0.0 2.0 0.00 0.00 0.00 93 1013.9
20201022130034 69 124 0.0 1.0 0.00 0.00 0.00 93 1013.9
20201022124528 69 283 0.0 0.0 0.00 0.00 0.00 93 1013.9
20201022123113 69 284 0.0 0.0 0.00 0.00 0.00 93 1013.8
20201022121606 69 308 0.0 0.0 0.00 0.00 0.00 92 1013.8
20201022120056 69 309 0.0 0.0 0.00 0.00 0.00 92 1013.8
20201022114546 69 89 0.0 0.0 0.00 0.00 0.00 92 1013.7
20201022113054 69 91 0.0 0.0 0.00 0.00 0.00 91 1013.7
20201022111530 69 90 0.0 0.0 0.00 0.00 0.00 91 1013.6
20201022110023 70 90 0.0 0.0 0.00 0.00 0.00 90 1013.5
20201022104519 70 91 0.0 0.0 0.00 0.00 0.00 90 1013.4
20201022103025 70 90 0.0 0.0 0.00 0.00 0.00 89 1013.4
20201022101520 70 86 0.0 1.0 0.00 0.00 0.00 89 1013.4
20201022100021 70 83 0.0 1.0 0.00 0.00 0.00 88 1013.4
20201022094617 70 81 0.0 0.0 0.00 0.00 0.00 87 1013.4
20201022093313 70 82 0.0 1.0 0.00 0.00 0.00 87 1013.4
20201022091829 71 96 0.0 1.0 0.00 0.00 0.00 86 1013.4
20201022090146 71 92 0.0 0.0 0.00 0.00 0.00 85 1013.5
20201022084736 71 92 0.0 1.0 0.00 0.00 0.00 84 1013.4
20201022083109 72 96 0.0 1.0 0.00 0.00 0.00 83 1013.4
20201022081655 72 94 0.0 1.0 0.00 0.00 0.00 82 1013.6
20201022080118 72 127 0.0 1.0 0.00 0.00 0.00 81 1013.6
20201022074627 73 127 0.0 1.0 0.00 0.00 0.00 80 1013.5
20201022073220 73 83 0.0 1.0 0.00 0.00 0.00 80 1013.5
20201022071552 73 125 0.0 1.0 0.00 0.00 0.00 79 1013.4
20201022070115 73 65 0.0 1.0 0.00 0.00 0.00 79 1013.4
20201022064557 73 148 0.0 1.0 0.00 0.00 0.00 79 1013.4
20201022063153 73 93 0.0 1.0 0.00 0.00 0.00 79 1013.4
20201022061609 73 84 0.0 0.0 0.00 0.00 0.00 78 1013.4
20201022060034 73 87 0.0 1.0 0.00 0.00 0.00 78 1013.4
20201022054606 74 60 0.0 1.0 0.00 0.00 0.00 77 1013.6
20201022053039 74 100 0.0 1.0 0.00 0.00 0.00 77 1013.6
20201022051603 74 98 0.0 1.0 0.00 0.00 0.00 78 1013.6
20201022050052 74 64 0.0 1.0 0.00 0.00 0.00 78 1013.6
20201022044533 74 70 0.0 0.0 0.00 0.00 0.00 77 1013.8
20201022043104 74 71 0.0 0.0 0.00 0.00 0.00 77 1013.9
20201022041536 75 68 0.0 1.0 0.00 0.00 0.00 76 1014.0
20201022040103 75 67 0.0 0.0 0.00 0.00 0.00 76 1014.0
20201022034600 75 94 0.0 0.0 0.00 0.00 0.00 75 1014.0
20201022033112 75 94 0.0 1.0 0.00 0.00 0.00 75 1013.9
20201022031527 75 41 0.0 1.0 0.00 0.00 0.00 74 1014.0
20201022030031 75 102 0.0 0.0 0.00 0.00 0.00 73 1013.9
20201022024520 75 103 0.0 1.0 0.00 0.00 0.00 72 1013.9
20201022023042 76 75 0.0 1.0 0.00 0.00 0.00 71 1013.8